Regional Weather Roundup
Issued by NWS

Home | Current Version | Previous Version | Text Only | Print | Product List | Glossary Off
Versions: 1 2 3 4 5 6 7 8 9 10 11 12 13 14 15 16 17 18 19 20 21 22 23 24 25 26 27 28 29 30 31 32 33 34 35 36 37 38 39 40 41 42 43 44 45 46 47 48 49 50

000
ASUS43 KMPX 190301
RWRMN
WEATHER ROUNDUP FOR MINNESOTA
NATIONAL WEATHER SERVICE TWIN CITIES/CHANHASSEN MN
900 PM CST THU JAN 18 2018


NOTE: "FAIR" INDICATES FEW OR NO CLOUDS BELOW 12,000 FEET WITH NO
SIGNIFICANT WEATHER AND/OR OBSTRUCTIONS TO VISIBILITY. N/A MEANS
CURRENT SKY AND/OR WEATHER CONDITIONS ARE NOT AVAILABLE.

MNZ060>063-068>070-190400-
   Twin Cities Metro

CITY           SKY/WX    TMP DP  RH WIND       PRES   REMARKS
TWIN CITIES    CLOUDY    35  29  78 SW7       29.76F WCI  29
ST PAUL        FAIR      30  26  85 SE7       29.78S WCI  23
CRYSTAL        FAIR      32  25  75 S5        29.74F WCI  27
BLAINE         CLOUDY    36  28  75 S7        29.74F
LAKEVILLE      FAIR      27  27 100 CALM      29.77S
EDEN PRAIRIE   FAIR      31  27  85 SW7       29.75F WCI  24
SOUTH ST PAUL  FAIR      27  25  92 CALM      29.77S
LAKE ELMO      FAIR      30  27  86 S7        29.77S WCI  23
$$
MNZ001>005-007-008-013>017-022>024-027-028-190400-
   Northwest Minnesota

CITY           SKY/WX    TMP DP  RH WIND       PRES   REMARKS
BEMIDJI        FAIR      22  20  89 CALM      29.63S
HALLOCK        FAIR      25  19  80 S16       29.54F WCI  12
ROSEAU         FAIR      25  19  80 S12       29.58F WCI  14
WARROAD        FAIR      25  21  86 S6        29.58F WCI  18
CROOKSTON      FAIR      25  21  86 S13       29.61F WCI  13
FOSSTON        FAIR      25  19  80 S14       29.63F WCI  13
DETROIT LAKES  FAIR      30  27  86 SW6       29.67F WCI  24
MOORHEAD       FAIR      28  25  86 S9        29.66F WCI  20
PARK RAPIDS    FAIR      23  17  78 SW5       29.65F WCI  17
MAHNOMEN       FAIR      27  22  82 S12       29.64F WCI  17
$$
MNZ006-009>011-018-025>026-190400-
   North Central Minnesota

CITY           SKY/WX    TMP DP  RH WIND       PRES   REMARKS
BAUDETTE       FAIR      25  23  92 S7        29.59F WCI  17
FLAG ISLAND    FAIR      21  19  93 SE12      29.56F WCI   9
INTL FALLS     CLOUDY    27  22  81 SW5       29.63F WCI  22
WASKISH        FAIR      25  23  93 CALM      29.64S
BIG FORK       FAIR      25  21  86 CALM      29.64F
LONGVILLE      FAIR      19  19 100 CALM      29.66F
GRAND RAPIDS   FAIR      22  20  92 S3        29.67F
CRANE LAKE     CLOUDY    25  23  93 CALM      29.67F
ORR              N/A     27  21  80 CALM      29.63F
COOK           CLOUDY    25  21  86 CALM      29.65F
WALKER         FAIR      27  20  75 S5        29.64F WCI  22
$$
MNZ012-019>021-037-190400-
   Northeast Minnesota

CITY           SKY/WX    TMP DP  RH WIND       PRES   REMARKS
DULUTH         FAIR      23  21  92 W5        29.67F WCI  17
ELY            CLOUDY    27  25  93 CALM      29.66F
HIBBING        FAIR      17  17 100 CALM      29.66S
EVELETH        FAIR      23  20  89 CALM      29.67F
DULUTH HARBOR  FAIR      28  25  86 CALM      29.72S
TWO HARBORS    FAIR      27  21  80 CALM      29.67S
SILVER BAY     FAIR      25  23  93 CALM      29.66F
G MARAIS ARPRT CLOUDY    27  21  80 SW3       29.64R
$$
MNZ029>031-032-039>041-046>048-054>057-064-190400-
   West Central Minnesota

CITY           SKY/WX    TMP DP  RH WIND       PRES   REMARKS
FERGUS FALLS   FAIR      27  21  80 SE7       29.68F WCI  19
WHEATON        CLOUDY    34  25  69 S7        29.71F WCI  28
MORRIS         CLOUDY    28  27  93 S6        29.69F WCI  22
ALEXANDRIA     FAIR      26  22  84 S3        29.69F
ELBOW LAKE     FAIR      26  24  90 S7        29.69F WCI  18
WADENA         FAIR      25  19  80 S3        29.67S
GLENWOOD       FAIR      27  23  86 S7        29.70F WCI  19
APPLETON       CLOUDY    34  27  75 SW6       29.71F WCI  29
BENSON         CLOUDY    30  27  86 SW3       29.73F
ORTONVILLE     CLOUDY    34  25  69 S6        29.70F WCI  29
MADISON        CLOUDY    36  28  75 SW6       29.72F
WILLMAR        FAIR      30  27  86 CALM      29.74F
$$
MNZ033>034-036-042>043-049>051-058-059-190400-
   Central Minnesota

CITY           SKY/WX    TMP DP  RH WIND       PRES   REMARKS
ST CLOUD       FAIR      26  23  88 SE3       29.72F
SAUK CENTRE      N/A     24  22  94 S5        29.70F WCI  18
PAYNESVILLE    FAIR      28  26  92 S3        29.72F
AITKIN         FAIR      19  18  93 CALM      29.67F
PINE RIVER     FAIR      19  18  93 CALM      29.70F FOG
BRAINERD       FAIR      23  17  78 CALM      29.69F
STAPLES        FAIR      23  19  86 CALM      29.68S
LONG PRAIRIE   FAIR      23  21  93 S3        29.69F
LITTLE FALLS   FAIR      28  19  69 CALM      29.70F
LITCHFIELD     FAIR      30  28  93 CALM      29.73F
BUFFALO        FAIR      32  28  83 SW6       29.75F WCI  26
MAPLE LAKE     FAIR      32  30  90 MISG      29.74F
HUTCHINSON     FAIR      32  29  89 S5        29.75F WCI  27
$$
MNZ037-044-045-052-053-190400-
   East Central Minnesota

CITY           SKY/WX    TMP DP  RH WIND       PRES   REMARKS
PRINCETON      FAIR      27  23  86 CALM      29.73F
MORA           FAIR      19  16  86 CALM      29.74R
CAMBRIDGE      FAIR      25  19  80 CALM      29.74S
RUSH CITY      FAIR      25  21  87 S3        29.73F
MOOSE LAKE     FAIR      27  23  86 CALM      29.68F
HINCKLEY       FAIR      23  21  93 CALM      29.72F
CLOQUET        FAIR      27  23  86 CALM      29.68F
MCGREGOR       FAIR      27  23  86 S3        29.69F
$$
MNZ071>073-080-081-089-090-097-098-190400-
   Southwest Minnesota

CITY           SKY/WX    TMP DP  RH WIND       PRES   REMARKS
MONTEVIDEO     CLOUDY    36  27  69 W9        29.72F
GRANITE FALLS  CLOUDY    33  29  86 S6        29.76S WCI  28
CANBY          CLOUDY    39  28  66 SW9       29.74S
MARSHALL       CLOUDY    35  28  75 W6        29.75F WCI  30
REDWOOD FALLS  CLOUDY    32  28  85 SW10      29.75F WCI  24
OLIVIA         CLOUDY    30  28  93 SW7       29.74S WCI  23
PIPESTONE      CLOUDY    28  25  86 SW6       29.76F WCI  22
WINDOM         CLOUDY    34  18  51 SW13      29.78S WCI  25
WORTHINGTON    CLOUDY    35  28  75 SW16      29.78F WCI  25
JACKSON        CLOUDY    34  28  80 SW13      29.79F WCI  25
SLAYTON        CLOUDY    34  28  80 SW14      29.77S WCI  24
$$
MNZ065>067-074>077-082>085-091>093-190400-
   South Central Minnesota

CITY           SKY/WX    TMP DP  RH WIND       PRES   REMARKS
MANKATO        FAIR      34  28  79 S9        29.78S WCI  27
NEW ULM        CLOUDY    34  27  75 SW9       29.76F WCI  26
ST JAMES       CLOUDY    34  28  80 S7        29.78F WCI  28
FAIRMONT       CLOUDY    33  27  78 SW12      29.80F WCI  24
FARIBAULT      FAIR      30  27  86 S6        29.79S WCI  24
OWATONNA       FAIR      30  27  86 S13       29.79R WCI  20
WASECA         FAIR      32  28  86 S12       29.80S WCI  23
ALBERT LEA     FAIR      28  21  74 SW8       29.81S WCI  20
$$
MNZ078>079-086>088-094>096-190400-
   Southeast Minnesota

CITY           SKY/WX    TMP DP  RH WIND       PRES   REMARKS
ROCHESTER      FAIR      29  23  78 S15       29.79F WCI  18
RED WING       FAIR      28  21  74 CALM      29.79S
STANTON        FAIR      27  23  85 SW6       29.77S WCI  21
DODGE CENTER   FAIR      28  23  80 S16       29.78F WCI  17
WINONA         FAIR      32  23  69 CALM      29.82S
PRESTON        FAIR      27  21  79 SW13      29.82S WCI  16
$$
ABBREVIATIONS USED IN REMARKS
   TC - TEMPERATURES IN CELSIUS
  WCI - WIND CHILL INDEX
   HX - HEAT INDEX
  VSB - VISIBILITY
$$




USA.gov is the U.S. government's official web portal to all federal, state and local government web resources and services.